Regional Weather Roundup
Issued by NWS

Home | Current Version | Previous Version | Graphics & Text | Print | Product List | Glossary Off
Versions: 1 2 3 4 5 6 7 8 9 10 11 12 13 14 15 16 17 18 19 20 21 22 23 24 25 26 27 28 29 30 31 32 33 34 35 36 37 38 39 40 41 42 43 44 45 46 47 48 49 50

000
ASUS45 KABQ 051110
RWRNM
NEW MEXICO REGIONAL WEATHER ROUNDUP
NATIONAL WEATHER SERVICE ALBUQUERQUE NM
400 AM MST MON DEC 05 2016

NOTE: "FAIR" MEANS FEW OR NO CLOUDS BELOW 12,000 FEET AGL WITH NO
       SIGNIFICANT WEATHER OR OBSTRUCTIONS TO VISION.

      THIS PRODUCT IS RELEASED AS TWO VERSIONS.  ONE VERSION NEAR
      THE TOP OF THE HOUR CONTAINING PRELIMINARY DATA FROM ALBUQUERQUE
      AND OTHER STATIONS.  A FINAL VERSION WITH ADDITIONAL DATA IS
      ISSUED ABOUT 10 MINUTES AFTER THE HOUR.

NMZ501-503-504-510>518-051200-
NORTHWEST PLATEAU/NORTHCENTRAL MOUNTAINS

CITY           SKY/WX    TMP DP  RH WIND       PRES   REMARKS
FARMINGTON     FAIR      21  18  88 E6        29.94F WCI  13
LOS ALAMOS     FAIR      32  15  50 CALM      29.93F
SANTA FE       FAIR      21  14  74 N5        29.91F WCI  15
TAOS           FAIR      16   5  62 CALM      29.93F
ANGEL FIRE     FAIR      32  12  42 CALM      29.87F

$$
NMZ402-403-502-505>509-051200-
WESTCENTRAL MOUNTAINS/SOUTHWEST MOUNTAINS

CITY           SKY/WX    TMP DP  RH WIND       PRES   REMARKS
GALLUP         FAIR      18  15  88 S5        29.97F WCI  11
GRANTS         FAIR      17  13  87 NW6       29.98F WCI   8
SILVER CITY    FAIR      31  26  83 NW9       30.00F WCI  22

$$
NMZ407-409-411-412-051200-
SOUTHERN DESERTS

CITY           SKY/WX    TMP DP  RH WIND       PRES   REMARKS
DEMING         FAIR      28  26  92 SW5       29.99F WCI  23
LAS CRUCES     FAIR      30  23  74 NW7       29.97F WCI  23
HOLLOMAN AFB   FAIR      26  19  73 N6        30.00F WCI  20
T OR C         FAIR      29  17  61 NW9       29.97F WCI  20

$$
NMZ519>523-051200-
CENTRAL VALLEYS/CENTRAL HIGHLANDS

CITY           SKY/WX    TMP DP  RH WIND       PRES   REMARKS
ALBUQUERQUE    FAIR      27  13  55 SE8       29.96F WCI  19
DOUBLE EAGLE   FAIR      24  12  59 S5        29.94F WCI  18
MORIARTY ARPT  FAIR      17   9  72 NW6       29.94F WCI   8
CLINES CORNERS FAIR      25   9  50 W14       29.91F WCI  13
BELEN          FAIR      22  18  81 CALM      29.96F
SOCORRO        FAIR      25  16  68 CALM      29.97F

$$
NMZ524>526-539-540-051200-
SOUTHCENTRAL MOUNTAINS

CITY           SKY/WX    TMP DP  RH WIND       PRES   REMARKS
RUIDOSO        FAIR      28  12  50 W7        29.95F WCI  21

$$
NMZ527>531-051200-
NORTHEAST HIGHLANDS/NORTHEAST PLAINS

CITY           SKY/WX    TMP DP  RH WIND       PRES   REMARKS
LAS VEGAS      FAIR      35  14  42 S13       29.81F WCI  26
RATON          FAIR      17  11  77 E5        29.76F WCI  10
CLAYTON        FAIR      29  22  75 SW8       29.73F WCI  21

$$
NMZ532>537-051200-
EASTCENTRAL PLAINS

CITY           SKY/WX    TMP DP  RH WIND       PRES   REMARKS
TUCUMCARI      FAIR      38  22  52 SW18G25   29.78F WCI  28
CANNON AFB     FAIR      28  28 100 W7        29.86F WCI  21
CLOVIS AIRPORT FAIR      28  25  86 SW10      29.86F WCI  19

$$
NMZ028-029-538-051200-
SOUTHEAST PLAINS

CITY           SKY/WX    TMP DP  RH WIND       PRES   REMARKS
ROSWELL        FAIR      24  21  88 SW5       29.90F WCI  18
ARTESIA        FOG       28  28 100 CALM      29.92F VSB<1/4
CARLSBAD       FAIR      28  28 100 VRB3      29.90F
HOBBS          FAIR      30  30 100 CALM      29.92F


$$




USA.gov is the U.S. government's official web portal to all federal, state and local government web resources and services.